Location: Molveno
(46.1500°N, 10.9667°E)
Time: 01:26:40
(UTC+00:00)

Cosmos 1745 Rocket - Pass Details

Date: 05 July 2020
Orbit: 953 x 997 km, 83.0° (Epoch: 11 August)

Event Time Altitude Azimuth Distance (km) Brightness Sun altitude
Rises 19:38:19 0° 174° (S) 3,633 6.6 -4.7°
Reaches altitude 10° 19:40:49 10° 170° (S) 2,696 5.9 -5.1°
Maximum altitude 19:46:52 60° 93° (E) 1,111 4.1 -5.9°
Drops below altitude 10° 19:53:01 10° 15° (NNE) 2,744 6.8 -6.6°
Sets 19:55:35 0° 12° (NNE) 3,703 7.5 -7.0°
